Location: Beccas
(43.4309°N, 0.1528°E)
Time: 00:22:39
(UTC+00:00)

H-2A R/B - Pass Details

Date: 15 October 2021
Orbit: 577 x 653 km, 98.5° (Epoch: 05 December)

Event Time Altitude Azimuth Distance (km) Brightness Sun altitude
Rises 17:58:58 0° 29° (NNE) 2,802 5.1 -8.5°
Reaches altitude 10° 18:01:37 10° 47° (NE) 1,899 4.1 -9.0°
Maximum altitude 18:04:38 20° 94° (E) 1,375 3.2 -9.6°
Drops below altitude 10° 18:07:41 10° 142° (SE) 1,901 4.2 -10.1°
Sets 18:10:19 0° 160° (SSE) 2,806 5.2 -10.6°
